Theta_e
294 292 291 291 290 289 289 289 290 290 290 290 290 290 290 289 289 287 286 285 285 285
290 289 288 289 289 288 288 289 288 288 288 289 289 289 288 287 286 286 285 285 285 284
288 288 288 288 288 287 287 287 287 287 287 287 287 287 287 286 286 284 284 284 283 283
287 287 288 288 287 286 286 286 286 286 286 286 285 285 284 284 284 283 282 282 282 282
287 287 286 286 286 286 285 285 285 285 285 285 284 284 282 282 282 281 281 281 281 281
285 285 285 285 285 285 284 284 284 284 283 283 283 282 282 282 281 281 280 280 279 279
284 284 284 285 284 284 284 283 282 282 282 282 282 282 282 281 280 280 280 280 279 277
284 284 284 283 282 282 282 282 282 281 281 282 282 282 281 280 279 278 277 277 277 277
283 282 282 282 282 281 281 280 280 280 279 279 282 284 284 281 279 278 277 276 276 276
282 281 281 281 281 280 280 280 279 279 280 279 279 283 283 282 279 277 276 276 276 275
281 281 280 280 280 279 280 279 279 279 279 279 280 283 282 280 277 276 275 276 276 275
281 280 280 279 279 278 279 279 279 280 279 279 279 282 281 278 276 276 275 275 275 275
280 280 279 278 278 278 278 280 280 280 278 278 278 281 281 278 276 275 274 274 274 276
279 278 278 278 277 277 277 278 275 276 276 276 277 280 281 280 276 275 274 274 273 274
Wind_Speed
7 5 5 5 5 4 4 3 4 5 5 6 6 5 6 4 4 5 5 7 5 4
6 7 6 6 5 4 4 3 4 5 5 5 5 6 6 4 5 5 5 5 6 4
6 6 5 5 6 6 4 3 4 4 4 4 5 5 6 5 5 5 4 4 5 4
5 5 6 5 5 5 4 4 4 4 5 5 5 5 5 5 5 5 5 5 5 5
6 5 5 5 5 5 5 4 4 4 5 5 4 5 5 5 5 5 4 4 5 4
6 6 6 5 5 5 5 5 4 5 5 5 5 5 5 5 5 5 5 5 5 5
7 6 6 5 5 4 5 5 4 4 5 5 5 5 5 5 6 5 5 6 6 7
5 6 7 6 5 5 4 5 5 5 5 5 5 3 5 5 6 6 5 6 7 6
8 7 7 7 7 6 6 5 5 4 4 4 3 6 8 6 5 6 6 6 5 4
7 7 7 6 6 6 6 5 5 5 5 5 5 6 7 8 4 5 5 6 7 5
8 7 7 7 7 6 5 6 5 5 5 6 5 8 7 6 5 5 6 6 4 7
8 8 8 8 7 4 5 5 5 5 5 6 5 9 9 6 5 6 5 5 4 6
7 8 8 7 7 4 4 6 5 5 5 6 6 12 12 8 5 6 4 5 3 8
7 8 7 7 4 6 5 6 5 5 4 5 5 7 13 11 6 5 5 4 4 2
Wind_Direction
83 87 84 85 85 83 93 89 60 62 55 43 34 48 60 51 65 57 51 55 54 56
77 84 93 92 100 98 98 99 71 66 67 57 47 52 59 59 58 56 50 48 49 53
102 106 111 100 98 104 107 104 106 98 93 82 62 63 71 56 58 64 64 54 54 46
125 125 122 126 126 126 117 107 89 81 76 75 74 76 86 91 91 92 88 81 73 69
143 138 134 134 131 129 120 100 106 96 89 86 80 75 86 94 102 96 83 88 90 76
161 163 157 142 128 122 123 119 111 112 110 98 96 95 93 93 86 82 77 72 60 45
176 174 150 140 134 127 130 136 136 124 117 121 122 127 126 121 114 101 74 54 48 42
164 153 146 140 142 143 146 147 147 139 138 138 138 146 135 130 120 112 96 78 74 62
171 168 155 153 161 163 165 157 155 155 155 157 108 150 155 145 139 133 122 112 98 91
164 162 165 160 159 172 177 166 167 165 148 127 118 162 167 150 140 139 130 129 131 119
168 165 163 166 174 176 171 175 162 165 164 139 148 159 160 124 88 83 94 100 103 117
168 163 164 176 173 166 156 166 163 167 166 144 138 156 159 127 111 114 106 103 73 117
161 163 172 162 168 162 156 163 153 154 147 146 151 167 168 154 143 141 142 114 106 120
161 165 162 160 150 155 153 147 137 134 130 136 145 175 179 181 155 159 149 149 148 135